Kezdőlap
METAR-TAF:

METAR-TAF

Repülőterek :

Tri-County Regional Airport

Lone Rock, Wisconsin, Amerikai Egyesült Államok

földrajzi szélesség: 43-12-43N, földrajzi hosszúság: 090-10-53W, magasság: 219 m

Jelenlegi meteorológiai megfigyelések

A jelentés 22 perccel ezelõtt készült, 19:56 UTC
Déli szél 9 kt, dél-délkeleti és délnyugati között változik
Hőmérséklet 32°C
Páratartalom 21%
Légköri nyomás 1014 hPa
Látótávolság: 16.1 km
Derült ég

METAR: KLNR 301956Z AUTO 18009KT 150V220 10SM CLR 32/07 A2993 RMK AO2 SLP126 T03220072

Idő: 15:18 (20:18 UTC)


TAF: hiányzik

Meteorológiai megfigyelések és előrejelzések több, mint 4000 repülőtéren (METAR és TAF jelentéseket).

A térképen piros és sárga pontok jelzik az elérhető meteorológiai állomásokat.

Mozgassa az egeret a pont fölött, hogy megjelenjen az állomás neve.

Azután kattintson az időjárási megfigyelések és előrejelzések megtekintéséhez.

A térkép megváltoztatása: kattintson a fekete keresztel jelölt zöld gombra ráközelítéshez, a vonallal jelölt zöld gombra távolításhoz, vagy a zöld nyilakra a szomszédos térképek eléréséhez.


METAR-TAF: